Location: Unspecified
(0.0000°N, 0.0000°E)
Time: 00:50:38
(UTC+00:00)

Quakesat - Pass Details

Date: 30 July 2021
Orbit: 810 x 824 km, 98.7° (Epoch: 24 September)

Event Time Altitude Azimuth Distance (km) Brightness Sun altitude
Rises 04:52:12 0° 49° (NE) 3,346 ? -17.6°
Reaches altitude 10° 04:55:51 10° 75° (ENE) 2,416 ? -16.7°
Maximum altitude 04:58:21 13° 103° (ESE) 2,180 ? -16.1°
Drops below altitude 10° 05:00:52 10° 132° (SE) 2,418 ? -15.5°
Sets 05:04:29 0° 157° (SSE) 3,351 ? -14.7°
